If you wish to contribute or participate in the discussions about articles you are invited to join SKYbrary as a registered user

 Actions

Calvinia Airport

From SKYbrary Wiki

FACV
Airport
ICAO: FACV
Summary
Name Calvinia Airport
Region Africa
Territory South Africa ZA.gif
Location , Northern Cape
Serving Calvinia
Elevation 990.6 m
3,250 ft
3,250 ft990.6 m
Coordinates 31° 30' 1.00" S, 19° 43' 33.23" E
Runways
Designator Length Width Surface ROPS
9/27 1250 m4,101.05 ft
15 m49.213 ft
ASP /


METAR
Observation FACV 050836Z 09008KT CAVOK 20/M00 Q1025
Station Calvinia
Date/Time 05 June 2020 08:36:00
Wind direction 90°
Wind speed 08 kts
Lowest cloud amount clouds and visibility OK
Temperature 20°C
Dew point
Humidity 26%
QNH 1025 hPa
Weather condition n/a